Location: Bastogne Gables
(35.1554°N, 78.9900°W)
Time: 03:08:24
(UTC+00:00)

CSL-04 Rocket - Pass Details

Date: 29 October 2020
Orbit: 805 x 861 km, 98.9° (Epoch: 26 November)

Event Time Altitude Azimuth Distance (km) Brightness Sun altitude
Exits shadow 23:39:11 13° 128° (SE) 2,291 5.5 -15.9°
Maximum altitude 23:43:30 34° 69° (ENE) 1,392 4.3 -16.8°
Drops below altitude 10° 23:48:23 10° 7° (N) 2,484 6.0 -17.8°
Sets 23:50:57 0° 358° (N) 3,416 6.8 -18.3°
